Wind_Speed
14 13 12 11 11 10 9 8 8 8 8 8 10 11 11 9 11 8 5 7 11 10 12 10 9 10 5 1 3 3 2 2 3 3 2 4 2 6 6 16 10 11 14 27 34
13 13 13 12 12 11 10 9 9 8 8 8 9 11 12 14 8 3 13 14 18 18 15 12 9 8 4 2 1 2 2 6 6 2 4 4 5 11 6 12 5 5 12 35 37
13 13 13 13 12 12 11 10 10 8 8 8 9 10 12 11 4 8 16 19 21 15 9 8 14 12 4 5 3 3 4 2 10 14 18 11 12 10 11 5 11 23 34 40 41
14 13 12 13 13 13 12 11 10 9 7 7 8 9 10 2 4 11 17 17 19 17 11 15 18 7 3 2 4 3 10 15 11 14 18 15 17 6 17 7 22 21 40 43 43
15 14 13 12 12 13 13 11 11 9 7 7 8 8 8 5 5 15 17 17 18 13 10 6 11 7 5 4 5 6 6 13 20 23 22 10 14 6 12 7 11 28 35 43 42
15 14 14 13 12 12 12 12 11 10 7 6 7 7 6 3 4 16 14 17 16 16 4 10 9 6 6 5 5 8 11 17 12 6 2 9 4 4 4 8 26 36 37 34 40
18 14 12 12 12 10 10 11 11 9 7 5 6 7 7 4 3 10 14 10 12 17 4 6 6 4 1 4 4 8 6 4 6 3 1 8 3 5 14 25 31 36 36 36 31
18 14 12 10 9 8 8 9 10 8 7 6 5 6 5 3 6 12 15 16 17 16 9 4 5 4 4 9 5 5 1 6 6 7 4 3 6 5 23 29 29 31 33 34 37
20 15 11 8 4 4 5 7 8 7 6 6 5 4 4 7 13 13 13 12 17 14 8 5 3 4 4 4 3 7 8 15 8 1 4 5 5 6 22 22 25 30 31 34 38
18 14 11 9 5 3 3 4 5 4 5 4 6 2 10 15 9 13 19 12 14 16 8 7 2 3 4 5 2 4 5 5 7 5 4 2 8 5 22 24 27 29 31 34 39
16 12 9 8 6 5 7 6 4 2 8 10 7 8 4 8 6 10 22 21 12 13 5 5 3 3 8 7 5 3 4 8 15 15 5 14 8 11 18 23 25 28 30 33 39
15 10 7 8 8 5 1 2 2 3 8 14 21 21 21 18 7 10 9 17 12 8 7 3 6 13 6 6 8 6 4 7 12 10 7 6 16 14 15 18 30 32 31 33 38
12 6 3 4 6 6 6 10 12 11 2 7 16 20 22 12 10 16 10 19 6 6 9 7 7 11 6 8 10 5 5 10 8 3 4 4 7 12 9 15 19 31 37 36 41
10 4 3 5 2 6 8 11 13 6 5 6 4 7 14 14 7 16 17 12 4 11 7 6 3 11 6 8 4 13 5 14 14 2 4 7 5 6 8 14 12 19 31 35 36
8 6 7 6 3 3 7 7 9 2 4 3 3 1 7 15 1 1 24 19 8 7 5 12 9 8 7 15 10 14 15 9 9 5 1 2 2 8 1 6 10 14 28 35 41
8 7 9 8 5 4 10 7 4 5 4 5 1 1 4 2 6 7 1 7 3 3 4 13 7 6 10 7 12 18 7 6 3 4 1 5 6 7 4 7 6 13 31 35 38
7 5 5 7 5 6 10 5 5 5 5 8 4 6 4 2 4 3 8 4 1 3 4 5 4 4 2 3 2 3 7 4 4 3 6 2 4 10 4 8 7 8 23 31 34
4 4 4 3 4 6 9 5 5 1 3 3 5 4 6 5 4 7 4 2 3 5 2 1 5 1 3 4 5 2 5 5 5 3 6 2 5 7 3 7 10 6 17 26 37
2 3 2 2 3 3 2 5 5 4 3 3 2 6 6 5 1 3 5 7 3 2 4 2 3 4 3 4 2 3 4 5 2 3 3 3 7 8 9 7 9 14 13 18 28
1 3 3 2 3 4 5 4 2 3 2 4 4 4 5 7 5 5 5 6 8 5 1 2 2 1 5 2 5 6 3 4 4 2 3 5 5 4 14 11 2 7 5 6 14
2 1 11 5 6 1 2 5 3 9 3 5 1 3 2 2 1 2 3 1 7 8 7 2 3 6 3 4 1 5 4 4 5 3 3 2 5 5 7 9 5 7 6 9 13
3 3 14 3 3 2 1 3 7 7 11 7 5 3 2 3 4 3 3 3 14 4 3 3 4 2 5 7 2 3 3 4 4 4 1 3 6 1 7 8 3 8 5 1 20
8 5 12 5 3 4 6 5 8 8 6 5 6 5 5 3 2 3 3 2 17 5 2 3 2 4 8 6 6 6 4 2 5 3 3 3 6 9 9 7 8 13 11 9 14
5 4 6 12 8 3 4 4 3 9 4 7 3 4 6 6 5 3 6 2 9 3 12 2 3 6 6 6 1 1 2 4 4 2 3 6 9 10 16 12 5 11 8 9 9
8 3 5 4 6 5 2 2 4 5 4 13 4 5 4 4 7 4 1 5 5 5 5 4 1 3 4 6 3 4 4 4 5 8 6 8 6 6 13 15 21 11 10 9 17
6 6 7 5 9 4 7 6 5 5 3 3 3 3 2 2 5 5 2 1 6 2 3 3 2 1 3 4 3 4 8 8 8 2 6 5 4 8 24 19 17 21 17 16 19
12 6 4 6 6 3 2 4 4 5 2 4 3 1 4 3 5 11 15 12 10 2 1 1 3 3 4 3 6 5 3 2 6 4 2 4 4 10 19 21 18 23 23 30 28
Wind_Direction
299 295 289 286 287 291 295 299 305 312 323 331 332 330 328 324 310 299 234 118 156 136 127 134 155 183 194 244 98 118 80 257 243 295 308 228 146 172 155 150 164 176 168 166 163
298 290 286 280 278 278 281 284 290 300 312 322 327 328 331 333 335 141 137 129 132 135 133 135 168 203 120 104 231 115 137 230 220 256 242 316 236 163 150 175 168 164 160 165 168
309 295 284 277 271 270 270 273 279 286 300 315 324 328 337 348 72 100 143 145 146 148 126 143 165 161 146 152 213 164 220 218 271 275 275 260 240 194 143 243 206 162 160 171 177
311 301 289 276 267 262 261 264 268 278 291 308 320 325 333 2 97 145 163 168 165 137 143 128 153 109 102 164 222 306 255 264 276 258 273 246 223 220 179 230 203 193 176 176 183
314 301 292 280 267 258 253 253 261 266 279 299 311 322 338 322 135 162 169 174 170 159 200 179 129 129 138 199 186 231 268 265 259 279 288 201 191 234 216 305 192 178 165 179 185
328 309 293 283 272 258 249 245 248 255 266 282 298 308 314 294 145 182 182 182 192 180 189 6 40 115 141 202 208 228 267 274 302 279 330 154 174 198 200 173 170 170 173 180 189
336 321 302 286 274 262 246 236 238 244 251 265 277 290 277 280 182 195 198 216 210 192 234 336 40 105 22 311 360 276 314 320 35 40 74 145 74 260 219 166 168 174 183 185 189
349 333 316 298 277 263 240 224 228 234 238 252 255 272 250 205 199 199 196 208 200 205 228 341 191 51 38 309 18 322 104 14 330 48 312 124 238 272 169 163 174 180 187 192 198
358 353 345 332 304 254 216 202 217 221 227 236 246 238 254 219 210 210 212 206 189 199 215 184 191 338 352 38 33 1 348 341 338 27 356 53 265 208 181 182 185 186 190 195 200
360 4 8 23 50 98 144 166 187 215 214 225 235 279 235 221 209 219 204 204 163 181 132 156 29 350 22 51 286 301 332 293 269 292 356 271 254 254 192 195 196 197 196 196 204
358 9 22 45 67 95 125 140 148 198 223 216 211 214 204 207 229 271 205 186 189 159 167 190 73 218 232 191 178 219 211 250 273 265 320 229 221 215 212 197 201 203 202 203 207
354 9 34 54 61 72 93 213 72 19 289 251 245 250 245 263 300 245 206 170 152 202 127 72 229 229 208 217 229 211 276 265 275 282 204 214 237 224 196 204 204 200 203 208 209
347 353 24 41 14 35 9 32 352 327 238 270 234 239 240 248 238 252 209 200 185 191 183 170 233 220 202 256 262 272 189 277 239 356 48 120 286 240 230 222 224 217 208 208 209
334 312 279 342 50 26 31 1 359 350 61 279 229 245 210 214 275 232 218 199 185 201 222 214 225 187 202 262 226 287 208 253 274 5 255 160 265 281 214 225 217 212 208 211 213
310 280 251 296 307 10 334 318 337 341 54 338 216 124 184 177 191 241 228 219 203 198 117 246 176 196 206 225 232 252 270 242 250 251 173 227 37 268 14 211 208 202 214 213 213
307 280 255 260 251 314 325 326 318 41 0 346 230 104 132 334 270 278 109 214 2 183 216 252 203 176 216 236 218 248 327 314 142 118 4 237 146 285 224 224 220 203 211 215 211
307 285 266 235 226 286 317 330 42 87 333 332 333 40 116 327 325 232 251 56 29 359 287 2 175 246 261 272 41 154 48 314 344 18 222 80 88 239 282 251 221 218 212 207 212
302 261 284 261 233 278 320 56 76 222 284 347 3 14 64 347 360 333 81 70 40 91 59 16 341 339 354 225 237 74 145 151 269 215 270 55 222 258 287 335 188 213 203 212 213
290 230 302 222 225 281 327 59 181 205 247 325 77 64 345 343 42 69 59 11 305 87 126 72 284 304 296 317 107 322 3 200 183 1 53 255 297 309 344 59 109 125 148 195 209
31 245 354 185 252 291 70 221 211 250 66 62 92 35 39 332 50 42 52 304 336 354 326 209 315 317 298 295 9 97 243 28 6 22 324 308 313 281 356 334 335 148 197 165 214
47 109 14 341 210 14 119 234 234 22 89 71 100 81 160 31 350 53 352 132 350 314 34 54 109 289 351 26 359 356 10 29 112 122 157 301 279 188 328 271 247 298 200 117 109
19 58 4 166 49 40 53 305 331 353 36 52 84 84 27 36 7 79 91 49 8 306 14 319 147 221 244 298 308 132 100 95 98 304 117 145 275 304 6 315 201 245 249 268 100
360 343 24 116 78 354 320 23 55 24 20 30 29 43 25 59 72 86 1 93 19 52 59 321 347 10 352 352 1 55 348 82 115 87 227 131 263 356 360 2 275 259 257 131 133
9 20 8 64 62 115 18 8 69 37 51 54 38 68 45 31 10 340 353 341 347 43 28 102 118 158 194 207 183 289 65 42 100 128 231 224 282 326 342 340 329 285 276 289 230
32 51 19 338 348 7 43 22 24 7 35 27 44 72 51 356 345 350 320 319 318 22 52 81 251 209 231 247 221 224 206 196 212 230 181 266 223 357 329 317 302 273 263 247 257
42 14 0 332 326 15 12 6 24 328 22 357 73 329 114 189 194 263 292 240 239 342 76 13 258 42 295 354 42 283 273 235 214 277 250 279 290 351 321 324 331 339 253 246 244
30 13 348 351 346 52 356 304 355 337 335 45 307 62 332 261 234 257 264 254 241 219 104 124 131 74 258 3 349 337 279 93 82 2 326 24 326 330 334 334 328 346 324 251 231
Height
1503 1502 1501 1500 1499 1499 1499 1498 1498 1497 1496 1495 1493 1491 1490 1489 1488 1486 1485 1490 1490 1491 1492 1493 1494 1494 1495 1497 1497 1498 1501 1506 1498 1495 1486 1484 1484 1485 1485 1486 1487 1488 1488 1492 1498
1500 1499 1498 1497 1497 1497 1497 1496 1496 1495 1495 1494 1492 1490 1488 1486 1484 1483 1488 1487 1487 1488 1490 1491 1492 1491 1495 1495 1496 1498 1506 1498 1483 1483 1485 1486 1487 1484 1486 1487 1487 1488 1490 1494 1499
1496 1495 1494 1493 1493 1494 1494 1494 1494 1494 1493 1493 1491 1489 1487 1484 1484 1487 1487 1486 1485 1485 1486 1485 1486 1491 1494 1495 1494 1496 1498 1488 1482 1481 1480 1480 1482 1483 1482 1488 1482 1484 1488 1494 1498
1493 1491 1490 1489 1489 1490 1491 1491 1491 1491 1492 1491 1489 1488 1486 1485 1490 1486 1485 1484 1484 1486 1486 1486 1488 1491 1496 1497 1494 1497 1486 1484 1478 1477 1476 1472 1479 1479 1480 1479 1479 1482 1483 1490 1496
1490 1488 1486 1485 1485 1486 1487 1488 1488 1489 1489 1489 1488 1487 1485 1484 1484 1483 1483 1484 1485 1485 1486 1487 1490 1490 1495 1496 1496 1494 1482 1478 1475 1473 1471 1470 1475 1480 1478 1478 1477 1483 1488 1490 1495
1487 1484 1482 1481 1481 1482 1483 1484 1485 1486 1487 1487 1486 1486 1485 1485 1483 1483 1482 1483 1484 1485 1488 1486 1487 1489 1492 1493 1494 1487 1482 1475 1470 1470 1470 1471 1477 1479 1477 1476 1481 1483 1487 1492 1493
1483 1480 1478 1477 1477 1478 1480 1481 1482 1483 1485 1485 1485 1484 1484 1483 1482 1482 1482 1483 1484 1488 1489 1488 1488 1486 1486 1484 1486 1483 1484 1473 1471 1468 1470 1471 1478 1476 1472 1473 1479 1481 1486 1490 1494
1481 1478 1475 1474 1474 1475 1477 1478 1480 1481 1483 1483 1483 1483 1481 1480 1480 1481 1481 1483 1487 1489 1491 1490 1487 1485 1485 1485 1483 1484 1484 1495 1477 1471 1470 1472 1488 1475 1475 1475 1478 1481 1483 1487 1492
1480 1476 1474 1472 1472 1473 1474 1477 1478 1479 1481 1481 1482 1482 1479 1478 1477 1479 1481 1481 1486 1489 1491 1491 1488 1486 1486 1488 1494 1490 1499 1492 1485 1473 1469 1476 1482 1472 1476 1480 1480 1479 1481 1484 1488
1480 1476 1474 1472 1472 1473 1474 1476 1477 1479 1480 1480 1481 1483 1476 1474 1475 1477 1480 1483 1484 1488 1491 1492 1490 1490 1490 1491 1512 1504 1504 1494 1498 1478 1474 1478 1477 1473 1472 1476 1477 1478 1479 1480 1483
1480 1477 1475 1474 1473 1473 1475 1476 1480 1481 1477 1473 1472 1470 1470 1473 1474 1475 1477 1483 1485 1489 1491 1492 1497 1498 1486 1482 1483 1488 1493 1496 1481 1470 1478 1469 1469 1465 1465 1469 1474 1474 1476 1477 1478
1480 1478 1477 1475 1475 1475 1475 1475 1477 1478 1474 1468 1469 1469 1469 1471 1474 1472 1475 1481 1485 1488 1488 1495 1500 1482 1481 1481 1481 1484 1489 1490 1474 1464 1470 1472 1465 1456 1459 1461 1464 1466 1470 1473 1477
1480 1478 1478 1477 1476 1475 1474 1476 1475 1474 1473 1465 1464 1464 1466 1470 1470 1468 1471 1473 1474 1482 1488 1496 1482 1477 1483 1479 1481 1477 1489 1476 1478 1468 1467 1472 1474 1459 1455 1457 1462 1462 1462 1467 1470
1480 1478 1477 1477 1478 1475 1474 1474 1473 1471 1485 1469 1461 1459 1462 1467 1466 1464 1466 1470 1472 1478 1478 1483 1475 1476 1484 1483 1478 1485 1465 1467 1469 1480 1491 1469 1500 1463 1451 1451 1455 1457 1458 1461 1464
1478 1477 1477 1477 1476 1475 1475 1473 1472 1472 1508 1464 1459 1458 1458 1461 1461 1459 1461 1463 1469 1472 1476 1478 1478 1480 1487 1477 1473 1476 1460 1466 1468 1478 1478 1474 1489 1462 1446 1450 1448 1447 1451 1454 1456
1476 1476 1475 1476 1476 1475 1474 1472 1472 1490 1497 1466 1457 1458 1460 1460 1459 1458 1460 1463 1465 1468 1470 1467 1468 1471 1467 1465 1468 1458 1466 1465 1471 1481 1500 1471 1482 1468 1454 1437 1435 1435 1439 1443 1450
1474 1474 1473 1474 1475 1474 1473 1472 1491 1504 1471 1473 1467 1465 1462 1465 1462 1462 1461 1474 1479 1484 1484 1475 1474 1464 1462 1469 1464 1466 1488 1509 1500 1506 1501 1477 1479 1463 1435 1428 1426 1428 1432 1438 1444
1473 1473 1473 1473 1473 1474 1473 1477 1497 1480 1478 1469 1469 1468 1472 1469 1469 1467 1466 1479 1472 1478 1495 1493 1498 1467 1463 1466 1468 1470 1481 1510 1513 1513 1496 1474 1481 1456 1428 1424 1421 1423 1425 1431 1432
1472 1472 1472 1473 1473 1473 1474 1494 1488 1479 1471 1473 1475 1485 1485 1476 1470 1472 1479 1486 1476 1473 1491 1496 1487 1466 1463 1459 1462 1471 1488 1474 1492 1494 1499 1485 1462 1437 1431 1427 1425 1427 1427 1429 1428
1471 1471 1472 1473 1473 1473 1476 1488 1478 1470 1468 1471 1483 1483 1493 1485 1481 1480 1487 1487 1483 1474 1474 1479 1494 1471 1466 1462 1463 1468 1467 1490 1499 1503 1498 1493 1481 1479 1456 1447 1433 1429 1429 1428 1423
1472 1471 1473 1471 1473 1473 1487 1485 1473 1470 1468 1474 1480 1485 1485 1487 1484 1486 1492 1489 1484 1479 1475 1480 1489 1484 1472 1476 1481 1482 1485 1486 1494 1505 1513 1518 1492 1461 1455 1441 1437 1438 1431 1430 1421
1472 1474 1473 1471 1474 1480 1483 1478 1474 1474 1472 1474 1477 1480 1482 1484 1484 1487 1491 1488 1484 1480 1485 1481 1493 1500 1484 1474 1475 1475 1484 1493 1509 1501 1509 1512 1495 1449 1446 1440 1434 1434 1435 1433 1425
1475 1474 1473 1470 1486 1488 1480 1478 1478 1478 1479 1478 1484 1482 1483 1488 1489 1488 1490 1485 1483 1481 1484 1481 1496 1512 1501 1487 1478 1486 1486 1482 1496 1506 1505 1510 1491 1446 1445 1443 1438 1433 1427 1431 1429
1479 1481 1476 1476 1483 1484 1485 1485 1483 1482 1483 1482 1485 1484 1486 1492 1491 1492 1491 1485 1483 1482 1481 1479 1496 1499 1513 1498 1492 1492 1488 1485 1492 1507 1502 1499 1479 1462 1454 1452 1442 1439 1430 1426 1428
1484 1493 1494 1495 1485 1487 1485 1487 1489 1489 1485 1485 1488 1490 1491 1496 1496 1495 1490 1489 1483 1483 1482 1486 1496 1490 1491 1489 1489 1487 1488 1486 1486 1485 1492 1480 1480 1470 1465 1459 1448 1439 1434 1429 1425
1493 1496 1494 1493 1490 1488 1490 1495 1492 1489 1487 1490 1491 1489 1491 1494 1493 1495 1489 1489 1488 1484 1486 1489 1497 1492 1490 1485 1488 1487 1481 1480 1477 1472 1476 1473 1474 1469 1462 1458 1450 1444 1437 1433 1429
1500 1499 1499 1497 1494 1494 1498 1495 1493 1490 1489 1489 1488 1489 1490 1488 1486 1484 1483 1481 1481 1483 1490 1491 1498 1505 1504 1493 1490 1493 1478 1474 1485 1482 1480 1486 1480 1474 1463 1453 1451 1448 1439 1435 1430